星链-2517 (STARLINK-2517 )

导读 | 星芒AI

STARLINK-2517 是 SpaceX Starlink 项目中的一颗低轨道通信卫星,属于第二代 Starlink 卫星(Gen2)。该卫星于2024年发射,旨在提升全球互联网覆盖和连接速度。它采用先进推进系统和激光通信技术,以增强网络性能和减少延迟。作为 Starlink 卫星群的一部分,STARLINK-2517 支持高速宽带服务,尤其服务于偏远和网络基础设施薄弱地区,助力实现全球互联网普及目标。

基本信息
目录编号:
48309
目录名称:
STARLINK-2517
国际标识:
2021-036AK
轨道中心:
EARTH
卫星名称:
星链-2517
卫星全名:
星链-2517 (STARLINK-2517 )
卫星状态:
在轨 (已飞行1694 天)
发射日期:
2021-04-29 UTC
国别 :
美国 (US)
星等 :
--
轨道信息
数据来源 国际轨道数据
星历时间: 2025-12-18T00:36:57+0800
14小时前
查看轨道信息
半长轴: 6925.323km
偏心率: 0.0001273
轨道倾角: 53.056°
近地点辐角 94.730°
升交点赤经 99.718°
平近点角 265.384°
近地点: 546.306km
远地点: 548.07km
周期: 95.592分钟
每日圈数: 15.064085
详细信息
固有亮度:
5
最大亮度:
2.5
卫星平台:
Starlink V1.0
覆盖范围:
全球
运营商:
太空探索技术公司
运营商所在国:
美国
制造商(研发单位):
太空探索技术公司
制造商所在国:
美国
使用方式:
暂无
卫星简介
星链(Starlink)计划是由太空探索技术公司(SpaceX)提出的一个巨型低轨卫星互联网星座项目,计划在2019年至2024年间在太空搭建由约1.2万颗卫星组成的“星链”网络,其中1584颗将部署在地球上空550千米处的近地轨道,并从2020年开始工作。该卫星仍在工作。
2D轨道图
3D轨道图
轨道高度分析图
轨道倾角分析图
轨道综合分析图
查看轨道综合分析图